Dewpoint
2 1 6 5 0 -3 -4 -4 -4 -5 -7 -10 -7 -3 -2 -2 -2 -2 -3 -1 -2 -6 -5 -6 -3 -2 -1 -1 -3 -2 -2 0 -1 -1 -2 -5 -7 -8 -7 -8 -8 -8 -6 -5 -4
-1 -1 0 6 4 -3 -4 -4 -4 -5 -7 -10 -5 -2 -2 -3 -3 -2 -4 -1 -2 -6 -4 -1 -1 -3 -3 -2 -3 -2 -1 -2 -9 -10 -9 -7 -7 -7 -7 -7 -8 -5 -4 -5 -5
-0 -0 0 4 4 -0 -4 -4 -4 -5 -7 -10 -5 -2 -2 -3 -3 -3 -5 -3 -5 -6 0 -1 -4 -6 -5 -4 -3 -3 -3 -4 -5 -4 -6 -6 -6 -7 -6 -7 -4 -5 -5 -5 -5
1 1 1 2 -1 -5 -4 -4 -5 -5 -6 -9 -5 -2 -2 -3 1 -3 -4 -4 -5 -6 -2 -4 -5 -5 -5 -4 -6 -5 -6 -6 -7 -5 -6 -6 -6 -6 -7 -7 -5 -5 -6 -6 -5
2 2 0 -1 -2 -5 -4 -4 -4 -5 -7 -9 -5 -2 -3 -0 -3 -1 -4 -3 -5 -6 -4 -4 -3 -4 -4 -5 -6 -6 -6 -7 -8 -7 -7 -7 -6 -6 -6 -6 -6 -7 -4 -4 -4
2 1 1 -1 -4 -2 -4 -5 -4 -5 -7 -9 -4 -2 -2 2 -2 -2 -4 -4 -5 -5 -5 -4 -4 -4 -5 -5 -6 -6 -6 -7 -8 -8 -8 -6 -6 -6 -7 -6 -7 -4 -3 -3 -2
4 2 1 0 -4 -3 -4 -3 -4 -5 -7 -10 -3 -2 -1 -2 -2 -2 -3 -4 -4 -4 -4 -4 -4 -4 -4 -4 -5 -6 -6 -7 -7 -8 -6 -6 -5 -4 -6 -7 -6 -3 -3 -2 -1
5 2 -0 -0 -5 -3 -4 -4 -4 -5 -7 -9 -2 -2 -1 -1 -2 -1 -2 -2 -3 -3 -4 -3 -4 -4 -4 -4 -5 -6 -6 -5 -6 -6 -5 -8 -6 -4 -6 -7 -5 -3 -3 -2 -1
6 2 -1 -1 -5 -4 -4 -4 -4 -6 -8 -7 -2 -2 1 -2 -1 -2 -2 -3 -3 -3 -4 -4 -4 -4 -3 -3 -2 -5 -4 -6 -5 -7 -5 -6 -6 -6 -7 -7 -5 -3 -3 -2 -0
6 2 -1 -1 -5 -4 -3 -3 -4 -7 -7 -3 0 1 -2 -2 -2 -2 -2 -4 -4 -4 -4 -4 -4 -2 -2 -2 1 -4 -5 -7 -4 -6 -7 -5 -5 -6 -7 -7 -6 -4 -3 -3 -1
7 1 -1 -3 -5 -3 -2 -4 -7 -4 -4 -6 -6 -6 -3 -3 -3 -3 -3 -3 -4 -3 -2 -3 -1 1 -1 -2 -3 -6 -5 -6 -8 -6 -6 -6 -6 -7 -7 -7 -6 -3 -3 -3 -1
7 0 -2 -4 -3 -2 -2 -7 -4 -1 -1 -8 -4 -2 -6 -3 -3 -3 -3 -3 -3 -1 -2 -2 0 -1 -2 -5 -7 -6 -6 -5 -7 -6 -6 -6 -6 -7 -6 -6 -7 -4 -2 -2 -1
7 -0 -2 -1 1 1 -4 -7 -3 -3 -3 -2 -4 -6 -2 -3 -3 -4 -3 -3 -3 -2 -1 -0 -1 -2 -4 -6 -6 -6 -5 -5 -5 -6 -7 -6 -3 -4 -5 -6 -6 -4 -3 -3 -2
6 -1 1 4 4 -1 -3 -5 -3 -4 -3 -3 0 -2 -4 -2 -2 -4 -3 -3 -3 -1 -1 -1 -2 -3 -6 -6 -6 -4 -6 -6 -5 -5 -4 -5 -1 -4 -4 -4 -5 -3 -2 -2 -2
4 1 4 -3 -1 -1 -6 -4 -4 -4 1 -4 -1 -2 -4 -2 -3 -3 -4 -3 -2 -2 -3 -2 -4 -4 -4 -5 -6 -4 -5 -5 -5 -3 -3 -3 -2 -4 -4 -3 -4 -3 -2 -2 -2
6 4 3 2 -1 -6 -6 -1 -2 1 3 -3 -2 -2 -4 -2 -3 -4 -4 -4 -4 -3 -4 -4 -6 -5 -5 -6 -6 -5 -4 -4 -3 -2 1 -2 -2 -2 -2 -3 -4 -4 -3 -2 -2
7 7 5 -0 -2 -4 -5 -1 2 4 -4 -2 -1 -1 -3 -1 -1 -4 -3 -3 -1 -1 -1 -3 -5 -6 -6 -4 -5 -4 -3 1 3 2 2 -4 -2 -3 -4 -5 -5 -5 -3 -3 -2
7 7 2 -1 -3 -0 -4 -0 5 1 -1 -3 -3 -1 -0 -1 -1 -2 -2 -2 -3 -4 -1 1 0 -4 -5 -4 -4 -3 -3 1 3 2 -2 -4 -2 -4 -6 -6 -5 -5 -5 -3 -2
7 7 5 1 0 0 -1 0 2 -1 -3 -2 -2 -0 -1 -1 -1 -2 -1 -2 -3 -3 -1 -1 -1 -5 -5 -5 -5 -3 -2 -4 -2 -4 -3 -4 -5 -6 -7 -6 -5 -5 -5 -3 -2
7 7 5 0 1 1 -0 1 0 -5 -3 -3 -1 -2 -0 -1 -2 -1 -1 -3 -2 -4 -4 -3 -1 -4 -4 -5 -5 -3 -4 -2 -3 -2 -1 -3 -6 -5 -6 -6 -6 -5 -4 -3 -2
7 6 4 -0 2 3 2 -0 -1 -5 -4 -2 -2 -1 -2 -1 -2 -1 -3 -4 -4 -3 -4 -4 -4 -2 -4 -3 -2 -3 -3 -3 -4 -2 -1 -3 -4 -7 -6 -7 -6 -6 -4 -3 -2
6 4 3 1 3 2 2 -1 -2 -4 -4 -2 -3 -2 -2 -1 -2 -2 -2 -4 -5 -4 -3 -5 -4 -0 -1 -5 -5 -5 -4 -4 -2 -4 -3 -4 -2 -7 -7 -7 -7 -7 -5 -4 -3
5 5 4 2 4 3 -0 -1 -2 -1 -2 -2 -1 -2 -4 -2 -1 -2 -3 -4 -4 -5 -4 -5 -4 -1 -1 -3 -5 -3 -4 -4 -4 -4 -3 -1 -2 -6 -7 -6 -6 -6 -6 -5 -3
3 5 5 3 1 1 1 -1 1 -1 -1 -3 -3 -3 -4 -3 -3 -2 -0 -2 -4 -2 -5 -5 -4 -2 -0 -2 -3 -3 -4 -4 -4 -2 -3 -2 -4 -7 -6 -6 -6 -6 -6 -4 -3
4 4 2 3 2 1 -0 1 1 2 -0 -3 -3 -3 -3 -2 -3 -1 0 -1 -2 -3 -4 -4 -2 -2 -2 -4 -5 -4 -4 -4 -3 -4 -3 -5 -5 -7 -7 -6 -7 -5 -5 -3 -2
5 3 2 2 0 1 1 0 1 0 -0 -1 -1 -2 -2 -2 -2 -2 -0 -1 -2 -2 -3 -3 -0 -2 -2 -3 -4 -3 -4 -4 -3 -4 -4 -4 -4 -7 -6 -5 -5 -5 -3 -2 -2
3 2 0 2 1 1 1 -1 0 -0 -1 -2 -2 -2 -2 -3 -4 -4 -4 -3 -2 -2 -1 -2 -1 -1 -1 -3 -1 -0 -1 -2 -3 -4 -4 -3 -5 -5 -3 -3 -4 -4 -3 -2 -1
Wind_Speed
18 16 15 13 11 9 9 9 6 6 6 8 6 5 5 6 6 7 6 4 2 1 4 5 6 5 2 4 4 3 3 3 4 3 3 5 3 8 5 4 8 5 4 5 6
20 18 17 15 14 11 10 10 8 7 7 8 6 5 5 7 8 10 9 5 4 4 6 3 0 4 3 3 1 2 2 3 3 3 3 6 7 6 5 8 6 13 9 6 3
20 18 17 15 15 15 12 11 8 7 8 7 7 5 5 6 7 7 12 7 6 7 6 4 6 5 5 4 3 2 4 2 3 5 7 4 6 2 2 3 2 1 0 3 4
21 19 18 17 13 14 13 12 8 8 9 7 8 5 4 5 4 3 12 10 8 8 7 5 4 7 3 3 4 1 6 7 1 3 3 2 2 3 5 7 5 6 7 5 5
20 20 19 17 15 14 12 11 9 9 10 8 8 5 3 5 8 4 5 13 11 9 7 4 9 6 0 4 0 2 5 6 3 4 5 6 9 6 9 7 4 1 2 6 9
20 20 20 18 15 14 13 13 11 9 9 9 7 6 4 4 4 5 3 14 13 10 7 3 3 4 4 3 0 1 5 11 8 9 6 7 5 6 7 10 3 5 1 3 4
20 20 21 20 17 15 15 14 11 10 9 9 6 5 10 16 7 3 6 9 13 9 6 6 7 2 6 6 4 4 4 7 12 11 5 4 4 7 9 8 9 10 4 1 3
21 20 21 21 18 16 15 14 11 10 9 6 6 5 9 9 16 13 8 9 16 12 10 6 8 3 3 5 5 3 1 1 6 12 4 6 7 7 14 13 12 14 9 4 4
23 21 21 21 20 18 16 13 11 11 9 7 5 6 8 10 15 12 11 11 11 10 12 9 4 3 2 1 5 2 4 3 2 9 4 4 4 3 14 13 19 18 12 6 6
23 22 21 21 21 20 16 12 11 8 8 7 7 3 14 13 9 14 14 12 10 10 6 6 4 1 2 3 4 4 3 3 3 5 5 5 8 6 16 13 17 21 18 10 7
23 22 23 23 23 22 19 13 7 5 15 13 12 9 8 11 9 14 14 16 13 10 5 6 3 5 10 7 12 4 2 3 4 3 5 7 7 10 21 16 16 22 21 15 11
23 23 24 23 24 23 23 17 10 1 6 26 16 17 18 6 1 12 18 13 12 6 5 4 7 9 8 5 2 3 1 5 5 2 2 5 9 9 10 18 23 28 25 22 17
25 25 24 23 24 27 31 29 11 5 3 8 23 29 17 17 7 7 21 18 6 6 7 7 6 11 4 3 3 3 3 4 6 2 4 2 7 6 6 10 19 27 27 24 23
30 27 26 25 26 30 32 22 10 5 1 6 8 12 25 6 7 13 20 19 5 12 7 7 14 8 4 4 4 3 3 4 4 3 3 3 5 6 6 7 9 28 31 28 25
30 30 31 31 19 33 27 19 15 8 3 3 6 7 17 19 7 16 19 20 8 5 7 7 5 5 4 6 5 6 2 1 1 1 3 3 1 6 6 5 7 20 32 31 26
33 33 33 31 19 24 17 22 14 4 7 4 6 7 8 16 2 10 9 11 9 3 1 6 2 5 5 2 1 4 2 3 3 3 3 7 7 5 5 10 5 16 31 34 30
32 34 36 36 28 27 26 27 3 5 3 5 5 5 13 9 5 4 6 6 6 4 5 4 4 4 5 3 4 2 4 1 1 1 6 2 5 8 9 7 16 20 30 35 33
33 33 37 37 29 27 36 6 5 9 6 3 5 7 6 7 7 6 6 7 5 4 4 5 5 10 5 7 6 6 6 4 5 3 4 5 5 6 3 13 26 30 36 36 35
37 36 39 37 36 35 29 10 9 7 9 7 5 5 5 6 6 6 6 5 9 9 7 7 5 2 3 2 8 4 5 4 1 2 2 4 5 6 3 6 15 25 31 37 37
44 38 41 38 37 35 13 10 7 5 6 5 6 7 8 11 6 13 13 9 10 17 13 2 1 1 1 2 1 4 1 2 1 3 4 5 4 4 4 6 5 12 26 35 37
40 21 33 44 30 18 13 9 7 4 9 5 5 7 6 7 7 9 7 8 18 13 20 6 4 0 3 6 8 3 2 3 3 5 4 1 5 4 7 8 9 10 28 38 40
34 6 28 43 8 10 8 7 7 6 2 2 3 3 8 9 8 7 9 5 8 13 13 7 4 4 8 3 4 5 7 6 4 4 3 4 5 3 3 11 17 19 21 34 38
28 9 33 39 9 11 6 8 10 7 5 5 5 5 1 7 5 6 6 0 5 5 10 7 4 2 1 1 1 4 5 5 2 3 5 4 5 3 5 1 11 14 16 22 34
21 5 12 22 14 9 12 18 5 11 4 5 4 3 2 4 1 8 3 0 2 3 6 4 4 6 6 4 4 4 6 6 6 3 3 7 5 7 5 4 6 11 19 25 34
11 5 15 15 19 5 19 11 15 7 9 17 4 5 6 5 4 4 3 2 4 2 3 5 5 3 3 5 5 5 4 7 7 8 6 11 8 7 2 8 13 16 19 28 31
13 9 19 20 27 16 12 12 20 14 14 6 6 9 7 4 6 8 7 4 5 2 5 1 3 3 2 5 5 4 7 7 7 8 7 8 14 8 3 6 3 8 28 34 35
26 14 28 19 21 16 12 22 15 15 10 15 8 4 5 6 9 7 9 12 10 8 6 6 4 2 4 2 2 4 9 12 7 6 8 9 14 4 5 7 7 7 16 26 32
Wind_Direction
248 244 246 253 271 262 257 253 242 254 271 279 253 247 271 285 278 262 235 211 178 160 148 129 99 77 52 299 308 321 47 322 300 356 116 101 83 48 16 359 337 311 212 149 163
248 248 245 255 251 253 253 253 246 255 265 269 249 246 277 295 285 251 196 200 252 200 147 142 223 176 235 236 238 84 96 259 346 31 49 72 77 19 12 336 332 84 79 85 67
249 245 248 247 245 252 246 248 253 258 259 262 244 241 277 302 295 244 203 200 205 186 167 257 286 223 246 167 220 206 203 269 30 62 37 31 19 17 81 300 239 270 220 177 192
245 241 241 244 249 242 237 239 241 262 263 255 240 225 263 280 220 29 200 190 203 189 185 157 240 257 228 193 232 90 287 309 293 71 15 356 336 297 261 259 202 269 304 303 267
242 241 238 237 244 232 233 241 240 247 266 256 234 233 241 251 254 301 196 196 195 198 191 220 298 298 13 335 308 185 265 282 288 191 252 250 254 246 259 171 213 265 288 294 286
247 245 242 234 229 226 224 232 236 237 255 259 223 247 223 237 260 257 201 201 198 201 202 248 2 1 359 316 303 240 308 292 287 263 232 198 248 211 276 187 166 175 246 321 311
247 244 243 238 226 219 218 220 220 227 237 245 222 245 240 225 183 285 219 204 202 195 213 282 249 319 335 321 328 307 303 312 261 249 212 190 295 222 197 172 172 157 130 88 335
245 242 240 236 223 213 214 216 215 219 230 215 222 235 252 225 227 258 248 188 189 196 220 220 245 258 250 282 321 269 72 308 311 143 180 134 273 222 183 179 160 144 131 106 57
243 239 236 231 217 211 204 207 217 217 217 190 211 229 258 230 224 231 235 208 200 201 218 222 223 216 196 66 353 320 249 207 247 188 142 181 252 245 178 193 161 149 140 122 100
238 235 231 225 214 209 197 196 213 201 199 167 195 240 247 222 211 218 211 174 170 194 197 186 190 136 2 95 237 228 251 319 207 238 172 196 252 222 199 187 174 152 143 140 123
236 228 225 220 210 199 184 171 168 199 201 198 198 203 64 205 208 212 191 183 185 179 189 194 117 210 235 211 246 225 242 303 283 231 170 232 249 247 220 200 160 160 147 145 135
232 222 219 212 207 192 180 183 200 115 220 225 220 243 234 279 255 194 189 179 183 188 201 359 223 225 245 208 264 295 321 281 297 222 156 257 263 259 186 196 198 168 154 151 148
230 215 212 205 198 194 193 189 164 172 272 225 224 225 218 214 218 221 192 189 171 187 194 186 228 211 195 198 238 240 206 250 222 249 269 315 296 271 192 189 206 179 169 165 163
222 208 200 193 196 197 203 185 149 164 329 261 197 231 214 203 222 207 194 189 221 197 204 228 245 211 186 196 183 253 213 249 245 68 254 127 284 299 197 191 162 166 165 163 167
207 200 194 198 197 194 199 164 149 155 288 223 165 183 200 178 175 206 210 207 202 204 158 236 185 158 174 207 197 230 177 231 268 211 351 273 199 257 136 201 164 173 171 171 178
197 196 193 184 195 200 167 145 147 71 243 169 150 176 134 198 182 144 158 180 197 178 285 238 256 133 191 92 152 134 87 19 31 84 290 221 172 267 187 201 175 184 179 176 179
193 193 189 179 188 164 164 156 98 185 235 191 178 170 169 175 199 150 154 164 162 160 215 216 210 152 149 102 16 64 76 1 294 191 230 310 149 252 223 201 191 185 183 181 180
193 192 186 178 167 167 169 132 178 193 212 182 141 143 189 142 219 166 148 186 245 156 150 169 279 169 194 169 181 195 170 178 231 202 266 345 236 255 299 222 200 195 190 181 183
187 191 188 175 164 170 171 185 190 205 183 145 92 144 203 209 165 146 203 207 204 192 176 178 241 44 72 139 137 208 197 190 256 264 109 239 281 314 354 51 164 183 190 191 190
177 183 193 170 169 175 187 200 196 153 116 122 152 173 185 194 156 172 181 219 214 201 206 207 71 291 350 70 168 164 219 133 5 234 248 284 248 242 250 233 167 174 188 193 195
167 164 198 182 179 179 200 190 187 146 132 146 185 177 192 174 161 177 203 240 200 191 193 188 129 323 104 212 186 149 221 215 160 160 186 268 273 238 212 209 203 197 197 196 196
161 164 174 174 152 192 202 192 151 142 137 121 121 207 179 168 175 191 213 196 207 170 189 183 133 183 201 270 192 184 192 173 146 244 225 149 274 243 231 199 197 199 190 203 203
157 113 165 178 179 188 163 222 186 149 162 173 200 234 163 159 169 196 204 42 158 131 157 170 201 141 342 338 317 215 205 193 148 111 215 132 262 292 310 15 224 212 200 203 200
161 136 161 189 204 168 184 201 191 195 167 143 207 178 136 144 216 184 152 344 131 102 135 133 165 176 189 195 138 195 208 196 161 171 177 218 261 278 282 258 227 207 207 193 187
172 170 178 186 203 184 189 175 187 179 195 193 194 181 180 167 146 145 131 108 40 125 116 144 196 231 218 226 172 175 191 206 195 220 186 256 208 250 213 232 232 228 197 184 177
166 148 175 167 188 197 200 200 188 188 174 194 153 196 209 188 187 180 131 167 182 147 165 195 212 174 229 191 207 214 222 220 224 242 243 247 268 190 164 139 21 223 182 179 185
185 148 163 161 180 192 209 199 196 181 190 189 181 163 203 222 132 111 150 177 159 145 165 152 168 124 244 169 58 298 215 218 220 215 207 219 247 177 188 164 162 139 186 202 194
Height
1532 1533 1534 1535 1536 1536 1536 1536 1535 1536 1536 1536 1536 1536 1536 1536 1536 1536 1536 1538 1537 1538 1539 1539 1540 1540 1540 1540 1540 1540 1548 1552 1543 1536 1537 1533 1534 1535 1537 1538 1538 1538 1537 1538 1540
1528 1529 1531 1532 1533 1534 1534 1535 1534 1534 1534 1534 1534 1534 1535 1534 1534 1533 1536 1535 1537 1538 1538 1539 1540 1540 1540 1540 1540 1540 1551 1543 1536 1535 1537 1535 1535 1536 1537 1538 1539 1538 1538 1539 1540
1523 1525 1527 1529 1530 1531 1531 1532 1532 1532 1533 1532 1533 1533 1534 1534 1533 1530 1532 1534 1536 1537 1538 1538 1539 1540 1539 1539 1539 1539 1545 1537 1536 1535 1534 1535 1535 1536 1537 1539 1538 1538 1539 1540 1541
1519 1522 1524 1525 1526 1527 1528 1529 1529 1531 1531 1530 1531 1531 1532 1534 1535 1529 1530 1532 1535 1537 1537 1537 1538 1539 1538 1539 1537 1540 1537 1537 1535 1534 1534 1536 1536 1536 1536 1537 1538 1537 1537 1537 1536
1515 1517 1519 1520 1522 1523 1524 1526 1527 1529 1529 1528 1530 1529 1530 1532 1530 1529 1529 1531 1534 1535 1537 1537 1537 1536 1537 1537 1536 1537 1536 1535 1534 1533 1534 1535 1535 1536 1534 1535 1535 1536 1535 1534 1534
1511 1513 1514 1515 1517 1520 1521 1523 1525 1526 1527 1528 1528 1529 1529 1531 1528 1528 1528 1530 1532 1533 1535 1536 1536 1536 1535 1535 1537 1535 1535 1533 1532 1532 1532 1533 1534 1535 1530 1532 1534 1534 1534 1534 1533
1507 1509 1510 1512 1514 1516 1519 1521 1522 1524 1526 1527 1526 1527 1527 1525 1525 1526 1527 1528 1530 1532 1534 1535 1535 1536 1536 1535 1535 1534 1536 1532 1528 1529 1531 1531 1534 1532 1530 1531 1532 1533 1533 1533 1532
1502 1504 1506 1508 1511 1513 1515 1517 1520 1522 1523 1525 1525 1526 1523 1522 1523 1524 1526 1526 1528 1530 1532 1533 1534 1535 1535 1535 1534 1535 1535 1541 1527 1526 1529 1532 1539 1525 1528 1529 1530 1532 1533 1532 1532
1496 1499 1502 1505 1507 1510 1512 1515 1518 1519 1522 1522 1525 1525 1522 1519 1519 1522 1523 1524 1526 1529 1531 1532 1533 1534 1535 1537 1544 1539 1547 1539 1530 1525 1528 1532 1532 1526 1526 1528 1528 1529 1531 1532 1533
1491 1494 1496 1500 1503 1506 1510 1513 1517 1518 1521 1521 1523 1526 1518 1515 1517 1518 1520 1523 1526 1528 1530 1531 1532 1535 1536 1543 1556 1544 1540 1535 1536 1528 1527 1530 1529 1524 1524 1525 1526 1527 1529 1532 1533
1484 1488 1492 1495 1499 1503 1507 1512 1518 1519 1515 1511 1512 1511 1511 1513 1514 1515 1517 1521 1525 1528 1530 1528 1536 1539 1533 1534 1533 1532 1533 1536 1529 1524 1527 1528 1527 1521 1521 1522 1525 1526 1527 1530 1533
1477 1482 1486 1490 1495 1499 1503 1506 1508 1510 1509 1508 1509 1510 1510 1512 1512 1513 1516 1520 1522 1526 1526 1532 1537 1527 1525 1526 1528 1529 1531 1535 1528 1524 1527 1525 1523 1517 1514 1515 1518 1520 1523 1526 1532
1470 1476 1481 1486 1491 1494 1495 1500 1503 1506 1507 1502 1501 1502 1506 1509 1510 1509 1513 1516 1518 1522 1524 1533 1524 1519 1522 1524 1528 1529 1530 1532 1533 1526 1524 1523 1525 1516 1510 1512 1515 1518 1519 1523 1527
1464 1469 1475 1481 1490 1489 1491 1501 1503 1507 1514 1500 1495 1495 1500 1505 1506 1507 1510 1513 1516 1519 1521 1523 1517 1519 1520 1524 1526 1532 1523 1524 1524 1532 1543 1525 1544 1517 1510 1510 1511 1516 1517 1520 1525
1456 1463 1469 1475 1479 1482 1490 1499 1504 1508 1528 1487 1489 1489 1491 1499 1499 1501 1506 1510 1512 1512 1516 1521 1515 1515 1518 1520 1520 1525 1521 1522 1523 1531 1534 1530 1540 1517 1511 1512 1511 1513 1515 1517 1521
1450 1457 1465 1471 1474 1480 1490 1497 1504 1517 1521 1489 1486 1488 1492 1495 1496 1498 1502 1506 1509 1510 1510 1515 1513 1511 1515 1515 1518 1518 1521 1525 1527 1538 1551 1529 1531 1518 1514 1504 1509 1511 1512 1514 1518
1444 1452 1459 1465 1468 1478 1486 1494 1512 1517 1483 1488 1487 1485 1489 1492 1495 1497 1501 1505 1510 1521 1521 1513 1513 1510 1513 1519 1519 1521 1530 1543 1547 1551 1545 1517 1528 1507 1498 1496 1495 1501 1507 1511 1516
1439 1450 1455 1462 1468 1476 1482 1489 1504 1486 1481 1477 1480 1485 1490 1488 1493 1495 1501 1506 1504 1505 1514 1525 1525 1512 1509 1511 1519 1526 1526 1537 1543 1543 1532 1518 1523 1504 1489 1485 1489 1495 1501 1507 1512
1435 1448 1451 1458 1464 1471 1478 1484 1483 1472 1468 1476 1481 1489 1491 1486 1489 1493 1498 1502 1497 1501 1512 1517 1517 1507 1506 1506 1511 1518 1525 1518 1528 1526 1536 1520 1505 1494 1489 1488 1489 1494 1500 1504 1508
1428 1441 1444 1454 1459 1466 1471 1469 1467 1461 1463 1469 1481 1481 1488 1486 1488 1491 1497 1488 1492 1492 1496 1499 1513 1508 1509 1508 1510 1510 1513 1525 1531 1536 1533 1521 1508 1506 1496 1493 1492 1494 1496 1501 1507
1423 1434 1438 1449 1457 1461 1459 1461 1459 1460 1460 1468 1472 1478 1477 1481 1483 1488 1488 1481 1480 1485 1491 1497 1503 1515 1512 1512 1510 1514 1516 1515 1519 1526 1531 1532 1516 1490 1492 1490 1490 1491 1493 1496 1501
1415 1428 1432 1443 1453 1453 1456 1454 1453 1459 1461 1464 1466 1469 1472 1476 1481 1484 1484 1476 1473 1477 1488 1491 1503 1516 1508 1500 1500 1503 1507 1508 1522 1516 1519 1525 1517 1485 1484 1483 1483 1485 1488 1493 1497
1411 1423 1432 1438 1440 1445 1451 1452 1451 1455 1460 1464 1465 1465 1463 1471 1482 1478 1476 1476 1474 1476 1481 1487 1501 1513 1507 1505 1502 1502 1499 1499 1504 1511 1513 1526 1513 1486 1485 1483 1483 1485 1487 1491 1494
1408 1418 1430 1432 1434 1438 1445 1447 1451 1450 1454 1455 1462 1463 1464 1466 1467 1474 1478 1476 1475 1476 1478 1482 1492 1495 1500 1494 1495 1502 1496 1496 1501 1513 1508 1510 1500 1489 1487 1485 1483 1482 1485 1487 1491
1399 1403 1404 1416 1426 1434 1439 1440 1446 1449 1452 1458 1461 1461 1465 1469 1468 1470 1474 1477 1477 1478 1479 1483 1490 1486 1484 1483 1486 1488 1490 1494 1499 1494 1504 1489 1497 1485 1483 1482 1478 1479 1481 1484 1489
1390 1394 1404 1407 1426 1434 1435 1433 1437 1445 1448 1453 1457 1459 1461 1462 1462 1467 1469 1473 1475 1480 1481 1483 1488 1483 1486 1484 1485 1488 1487 1489 1491 1488 1493 1491 1487 1477 1477 1476 1477 1476 1478 1481 1483
1386 1389 1399 1410 1418 1428 1423 1425 1431 1439 1444 1447 1452 1456 1459 1459 1458 1459 1459 1462 1465 1472 1480 1484 1487 1490 1494 1483 1488 1496 1485 1483 1481 1480 1479 1490 1471 1472 1474 1474 1474 1477 1480 1481 1482